Location: La Oliva
(42.2466°N, 2.9955°E)
Time: 07:05:56
(UTC+00:00)

ATLAS 5 CENTAUR R/B - Pass Details

Date: 22 April 2021
Orbit: 516 x 1141 km, 63.3° (Epoch: 02 May)

Event Time Altitude Azimuth Distance (km) Brightness Sun altitude
Rises 23:17:58 0° 332° (NNW) 3,163 6.1 -34.8°
Reaches altitude 10° 23:20:49 10° 349° (N) 2,351 5.3 -34.9°
Maximum altitude 23:24:53 21° 38° (NE) 1,861 4.3 -35.0°
Enters shadow 23:27:06 17° 66° (ENE) 2,115 4.4 -35.0°
